Dewpoint
37 39 41 41 39 38 35 34 35 37 39 41 41 42 42 42 41 40 39 38 35 32
33 34 35 33 34 34 34 35 38 40 41 41 41 41 41 40 39 38 36 35 34 33
32 31 31 32 32 32 35 38 40 41 40 41 41 40 39 36 34 32 33 32 32 32
32 29 28 30 31 32 35 35 35 34 36 37 36 35 33 31 31 30 30 30 30 29
32 28 27 29 30 31 31 31 31 31 31 32 31 31 30 29 29 28 27 27 28 27
30 26 28 29 30 31 29 29 29 29 29 30 31 30 29 29 28 27 27 27 27 27
26 26 28 29 30 32 32 30 30 30 31 31 28 26 26 26 26 26 25 26 26 25
31 32 31 35 37 36 34 33 31 28 26 25 23 21 26 26 26 25 25 25 25 24
40 40 40 39 38 36 35 29 25 23 23 23 21 28 30 29 27 26 24 23 23 23
39 40 39 37 36 28 24 22 21 21 22 23 24 27 28 28 25 25 24 24 24 24
29 27 26 24 22 21 20 19 19 20 23 24 24 26 26 26 24 24 24 25 25 25
28 27 23 21 20 20 18 19 20 23 24 23 22 24 24 24 21 22 23 25 25 25
24 22 21 21 19 19 19 20 23 23 22 22 21 23 25 24 24 24 23 23 23 25
25 23 22 20 19 19 21 21 17 15 18 20 22 22 25 25 25 24 24 24 24 26
Lifted_Index
7 7 7 7 7 8 7 7 7 7 7 7 8 8 8 7 6 6 6 7 8 9
7 7 7 7 7 8 8 7 7 7 8 8 8 8 7 7 7 7 8 8 9 9
8 8 7 7 7 8 8 8 8 8 8 8 8 8 8 8 8 9 9 10 10 10
8 8 8 7 7 7 8 8 8 8 8 9 9 9 8 9 9 9 10 10 11 11
7 8 8 7 7 7 8 8 9 9 9 9 9 8 8 9 9 10 10 11 11 11
7 7 7 8 8 8 8 8 8 8 8 8 8 8 8 9 10 10 11 11 11 11
7 7 8 8 8 7 7 7 6 6 6 7 7 8 8 9 10 11 11 11 11 11
7 7 8 8 7 6 6 5 5 6 6 7 7 9 10 10 11 11 12 12 12 12
6 7 7 7 6 5 5 5 5 6 7 8 9 10 11 11 12 12 12 12 12 12
6 6 6 6 5 6 6 6 7 8 9 9 10 11 11 12 12 12 12 12 12 11
7 7 6 6 6 7 7 8 9 9 10 10 11 11 12 12 13 12 12 12 11 11
7 7 7 7 8 8 9 9 10 10 10 11 11 12 13 13 12 12 11 11 12 12
7 7 8 8 9 9 9 10 10 10 11 11 12 13 13 13 12 11 11 11 12 12
7 8 8 9 9 9 9 10 10 10 11 12 12 13 13 13 12 11 11 11 12 12